www.pogodaiklimat.ru

Погода и климат >> Архив погоды >> Россия >> город Москва >> Москва


АРХИВ ПОГОДЫ в Москве

Время (UTC), дата Ветер
(напр.,м/с)
 
Видим.   Явления Облачность Т
(С)
Тd
(С)
f
(%)
Тe
(С)
Тes
(С)
Комфортность P
(гПа)
Po
(гПа)
Тmin
(С)
Tmax
(С)
R
(мм)
R24
(мм)
S
(см)
12 11.10 СЗ 2 10 км ясно +13.3 +1.3 44 +13 +15 тепло 1029.8 1010.7
15 11.10 С 1 10 км ясно +11.2 +1.2 50 +11 +11 тепло 1031.1 1011.8
18 11.10 штиль 0 н/о дымка ясно +6.2 +4.2 87 +5 +5 по сезону 1032.6 1013.0 +14.1
21 11.10 штиль 0 н/о дымка ясно +5.6 +3.4 86 +5 +5 по сезону 1034.3 1014.6
00 12.10 штиль 0 н/о дымка ясно +4.0 +3.2 95 +3 +3 по сезону 1034.7 1014.8
03 12.10 штиль 0 н/о дымка ясно +2.6 +2.3 98 +1 +1 прохладно 1035.4 1015.4 +2.4
06 12.10 СЗ 1 4000 м дымка 9/9 1000 м
[Sc]
+6.7 +4.3 85 +6 +6 по сезону 1036.3 1016.6 +2.4
09 12.10 З 2 10 км ясно +12.0 +4.4 60 +11 +15 тепло 1034.8 1015.5
12 12.10 З 1 10 км ясно +14.4 +3.5 48 +15 +17 тепло 1032.8 1013.7
15 12.10 З 1 10 км ясно +13.0 +5.0 58 +13 +13 тепло 1031.1 1011.9
18 12.10 СЗ 1 н/о ясно +11.7 +6.4 70 +12 +12 тепло 1030.5 1011.3 +15.5
21 12.10 З 1 н/о ясно +10.1 +7.1 82 +10 +10 тепло 1030.6 1011.2
00 13.10 штиль 0 н/о дымка ясно +8.2 +7.0 92 +7 +7 по сезону 1030.0 1010.5
03 13.10 З 1 н/о дымка ясно +7.8 +6.7 93 +7 +7 по сезону 1029.5 1010.0 +7.8
06 13.10 З 1 4000 м дымка 8/0
[Ac As]
+8.9 +7.2 89 +8 +9 тепло 1029.4 1010.0 +7.6
09 13.10 СЗ 1 10 км 10/4 600 м
[Sc Ac und]
+11.6 +8.4 81 +11 +12 тепло 1029.0 1009.7
12 13.10 СЗ 1 10 км ясно +14.5 +8.8 69 +15 +17 тепло 1027.5 1008.5
15 13.10 З 1 10 км ясно +12.8 +9.0 78 +13 +13 тепло 1026.9 1007.8
18 13.10 штиль 0 н/о ясно +10.8 +8.6 86 +10 +10 тепло 1027.0 1007.8 +14.9
21 13.10 штиль 0 н/о дымка ясно +9.9 +8.2 89 +9 +9 тепло 1027.0 1007.7
00 14.10 штиль 0 н/о дымка ясно +8.5 +7.7 95 +8 +8 тепло 1027.1 1007.7
03 14.10 штиль 0 н/о дымка 9/9 600 м
[Sc]
+9.3 +8.2 93 +8 +8 тепло 1026.7 1007.4 +8.1
06 14.10 ЮЗ 1 4000 м дымка 8/0
[Ci fib]
+10.4 +8.8 90 +10 +11 тепло 1027.1 1007.9 +8.1
09 14.10 З 1 10 км 8/0
[Ci fib]
+15.6 +10.4 71 +16 +20 тепло 1026.7 1007.8
12 14.10 СЗ 1 10 км 6/0
[Ac trans Ci fib]
+17.6 +9.9 61 +19 +20 тепло 1025.9 1007.1
15 14.10 СЗ 1 10 км 8/0
[Ac trans Ci sp]
+16.5 +9.4 63 +17 +17 тепло 1025.9 1007.0
18 14.10 СЗ 1 н/о 4/0
[Ci fib]
+13.8 +10.3 79 +14 +14 тепло 1026.4 1007.4 +17.9
21 14.10 штиль 0 н/о дымка 4/0
[Ci fib]
+12.4 +10.2 86 +12 +12 тепло 1026.8 1007.7
00 15.10 штиль 0 н/о дымка 3/0
[Ci fib]
+10.0 +9.4 96 +9 +9 тепло 1027.4 1008.2
03 15.10 штиль 0 н/о дымка 3/0
[Ci fib]
+8.8 +8.5 98 +8 +8 тепло 1027.6 1008.2 +8.8
06 15.10 З 1 4000 м дымка ясно +10.6 +10.4 99 +10 +11 тепло 1027.9 1008.6 +8.3
09 15.10 З 1 10 км ясно +16.0 +10.0 68 +17 +21 тепло 1028.0 1009.1
12 15.10 СЗ 1 10 км ясно +17.9 +8.2 53 +19 +21 тепло 1027.4 1008.6
15 15.10 штиль 0 10 км ясно +12.7 +8.5 76 +12 +12 тепло 1027.3 1008.2
18 15.10 штиль 0 н/о дымка ясно +9.7 +8.2 90 +9 +9 тепло 1027.3 1008.0 +18.4
21 15.10 штиль 0 н/о дымка ясно +9.0 +7.8 92 +8 +8 тепло 1027.4 1008.0
00 16.10 штиль 0 н/о дымка ясно +7.2 +6.8 97 +6 +6 по сезону 1027.7 1008.2
03 16.10 штиль 0 н/о дымка ясно +6.6 +6.4 99 +5 +5 по сезону 1027.3 1007.8 +6.4
06 16.10 З 1 4000 м дымка 10/0
[Ci fib]
+8.8 +7.3 90 +8 +9 тепло 1027.0 1007.6 +5.7
09 16.10 З 1 10 км 8/0
[Ci fib]
+14.8 +5.1 52 +15 +19 тепло 1026.3 1007.3
12 16.10 З 1 10 км 3/0
[Ci fib]
+16.3 +3.5 42 +17 +19 тепло 1025.0 1006.1
15 16.10 З 1 10 км 3/0
[Ci fib]
+14.2 +4.0 50 +15 +15 тепло 1024.2 1005.2
18 16.10 СЗ 1 н/о ясно +13.3 +4.2 54 +14 +14 тепло 1024.0 1004.9 +17.1
21 16.10 штиль 0 н/о ясно +10.8 +4.6 66 +10 +10 тепло 1024.2 1005.0
00 17.10 штиль 0 н/о ясно +8.5 +4.8 78 +8 +8 тепло 1024.5 1005.1
03 17.10 штиль 0 н/о дымка ясно +6.8 +4.7 86 +6 +6 по сезону 1025.1 1005.6 +6.6
06 17.10 З 1 10 км дымка ясно +10.0 +5.2 72 +10 +11 тепло 1025.4 1006.1 +5.5
09 17.10 З 1 10 км ясно +15.1 +5.6 53 +16 +20 тепло 1026.0 1007.1
12 17.10 штиль 0 10 км ясно +15.9 +6.4 53 +16 +18 тепло 1025.7 1006.8
15 17.10 штиль 0 10 км ясно +11.0 +7.4 78 +10 +10 тепло 1025.9 1006.6
18 17.10 штиль 0 н/о дымка ясно +7.7 +6.9 95 +7 +7 по сезону 1026.1 1006.7 +16.4
21 17.10 штиль 0 н/о дымка ясно +6.0 +5.7 98 +5 +5 по сезону 1026.3 1006.7
00 18.10 штиль 0 н/о дымка ясно +5.1 +4.9 99 +4 +4 по сезону 1025.6 1006.0
03 18.10 штиль 0 н/о в посл. час туман ясно +4.6 +4.5 99 +3 +3 по сезону 1024.8 1005.2 +4.5
06 18.10 штиль 0 1000 м дымка {туман} ясно +7.7 +7.6 99 +7 +7 тепло 1024.1 1004.7 +4.3

 

Местоположение метеостанции Москва (город Москва, Россия): широта 55.83 долгота 37.62 высота над уровнем моря 156 м.

В архиве по умолчанию представлена погода в Москве за последнюю неделю. Архивные данные за месяц целиком и за предыдущие месяцы, начиная с января 2011 года, Вы можете получить, выбрав интересующий диапазон дат из раскрывающегося списка и нажав кнопку "Ввод!".


*Определитесь, кто Вы:
робот инопланетянин человек

Внимание! Время в таблицах - всемирное. Для получения местного времени необходимо прибавить поправку, которая в Москве равна 3 ч.

Смотрите также архив погоды в соседних городах и на ближайших метеорологических станциях:

Погода в Москве (Балчуг) (город Москва, Россия) (9 км)
Погода в Москве (Тушино) (город Москва, Россия) (12 км)
Погода в Долгопрудном (Московская область, Россия) (13 км)
Погода в Москве (Строгино) (город Москва, Россия) (14 км)
Погода в Красногорске (Московская область, Россия) (18 км)
Погода в Шереметьево (Московская область, Россия) (20 км)
Погода в Немчиновке (город Москва, Россия) (21 км)
Погода в Железнодорожном АМС (Московская область, Россия) (23 км)
Погода в Луговой (Московская область, Россия) (26 км)
Погода в Пушкино (Московская область, Россия) (26 км)

Пояснения к столбцам:

Ветер - указаны скорость ветра в м/с - средняя за 10 мин, порывы в срок и между сроками (в фигурных скобках) и направление, откуда дует ветер: С - северный, СВ - северо-восточный, В - восточный, ЮВ - юго-восточный, Ю - южный, ЮЗ - юго-западный, З - западный, СЗ - северо-западный.
Видимость - горизонтальная дальность видимости в метрах или километрах. При видимости от 1 до 10 км при отсутствии осадков обычно наблюдается дымка, при ухудшении видимости до 1 км и менее - туман. В сухую погоду видимость может ухудшаться дымом, пылью или мглою.
Явления - указаны атмосферные явления, наблюдавшиеся в срок или в последний час перед сроком; фигурными скобками обозначены явления, наблюдавшиеся между сроками (за 1-3 часа до срока); квадратными скобками обозначены град или гололедные отложения с указанием их диаметра в мм.
Облачность - указаны через наклонную черту общая и нижняя облачность в баллах и высота нижней границы облаков в метрах; квадратными скобками обозначены формы облаков: Ci - перистые, Cs - перисто-слоистые, Cc - перисто-кучевые, Ac - высококучевые, As - высокослоистые, Sc - слоисто-кучевые, Ns - слоисто-дождевые, Cu - кучевые, Cb - кучево-дождевые. Подробнее классификацию облаков см. в Атласе облаков (PDF).
T - Температура воздуха - температура, измеренная на высоте 2 м над землей.
Td - Температура точки росы - температура, при понижении до которой содержащийся в воздухе водяной пар достигнет насыщения.
f - Относительная влажность воздуха - влажноcть воздуха, измеренная на высоте 2 м над землей.
Te - Эффективная температура - температура, которую ощущает одетый по сезону человек в тени. Характеристика душности погоды. При расчете учитывается влияние влажности воздуха и скорости ветра на теплоощущения человека.
Tes - Эффективная температура на солнце - температура, которую ощущает человек, с поправкой на солнечный нагрев. Характеристика знойности погоды. Зависит от высоты солнца над горизонтом, облачности и скорости ветра. Ночью, в пасмурную погоду, а также при ветре 12 м/с и более поправка равна нулю.
P - Атмосферное давление - приведенное к уровню моря атмосферное давление.
Po - Атмосферное давление - измеренное на уровне метеостанции атмосферное давление.
Tmin - Минимальная температура - минимум температуры воздуха на высоте 2 м над землей.
Tmax - Максимальная температура - максимум температуры воздуха на высоте 2 м над землей.
R - Количество осадков - Количество выпавших осадков за период времени, мм. При наведении курсора мыши на число - период времени, за который выпало указанное количество осадков.
R24 - Количество осадков - Количество выпавших осадков за 24 часа, мм.
S - Снежный покров - Высота снежного покрова, см. При наведении курсора мыши на число - состояние снежного покрова и степень покрытия местности в баллах.